| time (UTC) | temp C | wind direction | speed KPH | gust KPH | rain 1hr cm | rain 24hr cm | rain mn cm | humidity % | barometer mb |
| 20260508013057 | 23 | 256 | 3.2 | 6.4 | 0.00 | 0.00 | 0.00 | 57 | 1011.4 |
| 20260508011557 | 23 | 295 | 1.6 | 16.1 | 0.00 | 0.00 | 0.00 | 56 | 1011.4 |
| 20260508010107 | 23 | 259 | 1.6 | 14.5 | 0.00 | 0.00 | 0.00 | 55 | 1011.3 |
| 20260508004556 | 23 | 258 | 1.6 | 14.5 | 0.00 | 0.00 | 0.00 | 55 | 1011.2 |
| 20260508003103 | 23 | 250 | 1.6 | 11.3 | 0.00 | 0.00 | 0.00 | 56 | 1011.2 |
| 20260508001559 | 24 | 281 | 4.8 | 14.5 | 0.00 | 0.00 | 0.00 | 55 | 1011.1 |
| 20260508000054 | 25 | 271 | 4.8 | 12.9 | 0.00 | 0.00 | 0.00 | 52 | 1011.2 |
| 20260507234554 | 25 | 270 | 1.6 | 12.9 | 0.00 | 0.00 | 0.00 | 52 | 1011.2 |
| 20260507233052 | 26 | 261 | 3.2 | 12.9 | 0.00 | 0.00 | 0.00 | 51 | 1011.1 |
| 20260507231552 | 26 | 261 | 1.6 | 17.7 | 0.00 | 0.00 | 0.00 | 51 | 1011.2 |
| 20260507230107 | 25 | 302 | 1.6 | 17.7 | 0.00 | 0.00 | 0.00 | 53 | 1011.2 |
| 20260507224549 | 26 | 279 | 4.8 | 20.9 | 0.00 | 0.00 | 0.00 | 51 | 1011.4 |
| 20260507223132 | 26 | 273 | 3.2 | 14.5 | 0.00 | 0.00 | 0.00 | 50 | 1011.5 |
| 20260507221544 | 26 | 296 | 1.6 | 8.0 | 0.00 | 0.00 | 0.00 | 50 | 1011.7 |
| 20260507220041 | 26 | 259 | 6.4 | 14.5 | 0.00 | 0.00 | 0.00 | 49 | 1012.0 |
| 20260507214547 | 26 | 249 | 1.6 | 16.1 | 0.00 | 0.00 | 0.00 | 50 | 1012.1 |
| 20260507213037 | 26 | 279 | 6.4 | 17.7 | 0.00 | 0.00 | 0.00 | 49 | 1012.3 |
| 20260507211535 | 26 | 271 | 3.2 | 12.9 | 0.00 | 0.00 | 0.00 | 51 | 1012.3 |
| 20260507210040 | 25 | 267 | 4.8 | 19.3 | 0.00 | 0.00 | 0.00 | 52 | 1012.4 |
| 20260507204534 | 25 | 257 | 3.2 | 16.1 | 0.00 | 0.00 | 0.00 | 52 | 1012.5 |
| 20260507203036 | 25 | 270 | 8.0 | 20.9 | 0.00 | 0.00 | 0.00 | 53 | 1012.5 |
| 20260507201529 | 25 | 272 | 9.7 | 20.9 | 0.00 | 0.00 | 0.00 | 52 | 1012.4 |
| 20260507200047 | 25 | 268 | 4.8 | 14.5 | 0.00 | 0.00 | 0.00 | 52 | 1012.7 |
| 20260507194528 | 25 | 269 | 8.0 | 19.3 | 0.00 | 0.00 | 0.00 | 52 | 1012.7 |
| 20260507193038 | 24 | 271 | 8.0 | 17.7 | 0.00 | 0.00 | 0.00 | 52 | 1013.1 |
| 20260507191520 | 23 | 269 | 9.7 | 17.7 | 0.00 | 0.00 | 0.00 | 54 | 1013.1 |
| 20260507190020 | 24 | 290 | 4.8 | 16.1 | 0.00 | 0.00 | 0.00 | 52 | 1013.6 |
| 20260507184513 | 23 | 268 | 8.0 | 16.1 | 0.00 | 0.00 | 0.00 | 55 | 1013.6 |
| 20260507183014 | 23 | 289 | 3.2 | 14.5 | 0.00 | 0.00 | 0.00 | 57 | 1013.6 |
| 20260507181505 | 22 | 278 | 4.8 | 14.5 | 0.00 | 0.00 | 0.00 | 59 | 1013.7 |
| 20260507180005 | 22 | 288 | 4.8 | 12.9 | 0.00 | 0.00 | 0.00 | 59 | 1013.7 |
| 20260507174603 | 21 | 278 | 4.8 | 14.5 | 0.00 | 0.00 | 0.00 | 60 | 1013.9 |
| 20260507173100 | 21 | 283 | 4.8 | 14.5 | 0.00 | 0.00 | 0.00 | 61 | 1013.9 |
| 20260507171602 | 20 | 292 | 4.8 | 11.3 | 0.00 | 0.00 | 0.00 | 63 | 1014.0 |
| 20260507170051 | 19 | 270 | 8.0 | 14.5 | 0.00 | 0.00 | 0.00 | 66 | 1014.1 |
| 20260507164547 | 18 | 278 | 6.4 | 12.9 | 0.00 | 0.00 | 0.00 | 69 | 1014.2 |
| 20260507163044 | 18 | 273 | 4.8 | 14.5 | 0.00 | 0.00 | 0.00 | 72 | 1014.3 |
| 20260507161550 | 17 | 284 | 4.8 | 14.5 | 0.00 | 0.00 | 0.00 | 73 | 1014.3 |
| 20260507160040 | 16 | 253 | 4.8 | 12.9 | 0.00 | 0.00 | 0.00 | 75 | 1014.4 |
| 20260507154533 | 16 | 273 | 3.2 | 8.0 | 0.00 | 0.00 | 0.00 | 77 | 1014.5 |
| 20260507153028 | 15 | 307 | 3.2 | 11.3 | 0.00 | 0.00 | 0.00 | 79 | 1014.6 |
| 20260507151527 | 15 | 261 | 4.8 | 8.0 | 0.00 | 0.00 | 0.00 | 81 | 1014.7 |
| 20260507150022 | 13 | 282 | 3.2 | 6.4 | 0.00 | 0.00 | 0.00 | 84 | 1014.6 |
| 20260507144527 | 13 | 96 | 1.6 | 4.8 | 0.00 | 0.00 | 0.00 | 85 | 1014.7 |
| 20260507143021 | 12 | 96 | 0.0 | 0.0 | 0.00 | 0.00 | 0.00 | 87 | 1014.6 |
| 20260507141521 | 11 | 96 | 0.0 | 1.6 | 0.00 | 0.00 | 0.00 | 88 | 1014.4 |
| 20260507140020 | 11 | 94 | 0.0 | 0.0 | 0.00 | 0.00 | 0.00 | 88 | 1014.4 |
| 20260507134521 | 11 | 92 | 0.0 | 0.0 | 0.00 | 0.00 | 0.00 | 88 | 1014.2 |
| 20260507133018 | 11 | 102 | 0.0 | 0.0 | 0.00 | 0.00 | 0.00 | 88 | 1013.9 |
| 20260507131524 | 11 | 99 | 0.0 | 4.8 | 0.00 | 0.00 | 0.00 | 88 | 1013.8 |
| 20260507130016 | 11 | 103 | 0.0 | 3.2 | 0.00 | 0.00 | 0.00 | 88 | 1013.6 |
| 20260507124515 | 11 | 103 | 0.0 | 3.2 | 0.00 | 0.00 | 0.00 | 88 | 1013.6 |
| 20260507123014 | 11 | 103 | 0.0 | 3.2 | 0.00 | 0.00 | 0.00 | 88 | 1013.7 |
| 20260507121512 | 11 | 103 | 0.0 | 1.6 | 0.00 | 0.00 | 0.00 | 86 | 1013.8 |
| 20260507120010 | 11 | 101 | 0.0 | 0.0 | 0.00 | 0.00 | 0.00 | 86 | 1013.7 |
| 20260507114509 | 11 | 102 | 1.6 | 4.8 | 0.00 | 0.00 | 0.00 | 87 | 1013.7 |
| 20260507113007 | 11 | 102 | 3.2 | 6.4 | 0.00 | 0.00 | 0.00 | 86 | 1013.6 |
| 20260507111509 | 11 | 100 | 1.6 | 4.8 | 0.00 | 0.00 | 0.00 | 86 | 1013.7 |
| 20260507110005 | 11 | 100 | 3.2 | 6.4 | 0.00 | 0.00 | 0.00 | 86 | 1013.8 |
| 20260507104503 | 11 | 100 | 1.6 | 4.8 | 0.00 | 0.00 | 0.00 | 85 | 1013.9 |
| 20260507103001 | 11 | 99 | 0.0 | 4.8 | 0.00 | 0.00 | 0.00 | 85 | 1014.0 |
| 20260507101602 | 11 | 99 | 1.6 | 6.4 | 0.00 | 0.00 | 0.00 | 85 | 1014.1 |
| 20260507100112 | 12 | 321 | 1.6 | 4.8 | 0.00 | 0.00 | 0.00 | 85 | 1014.2 |
| 20260507094555 | 12 | 338 | 0.0 | 3.2 | 0.00 | 0.00 | 0.00 | 84 | 1014.3 |
| 20260507093056 | 12 | 341 | 1.6 | 3.2 | 0.00 | 0.00 | 0.00 | 84 | 1014.5 |
| 20260507091550 | 12 | 343 | 0.0 | 3.2 | 0.00 | 0.00 | 0.00 | 83 | 1014.7 |
| 20260507090049 | 12 | 342 | 0.0 | 3.2 | 0.00 | 0.00 | 0.00 | 82 | 1014.7 |
| 20260507084549 | 13 | 341 | 1.6 | 4.8 | 0.00 | 0.00 | 0.00 | 81 | 1015.0 |
| 20260507083058 | 13 | 343 | 1.6 | 4.8 | 0.00 | 0.00 | 0.00 | 81 | 1015.1 |
| 20260507081546 | 13 | 344 | 0.0 | 4.8 | 0.00 | 0.00 | 0.00 | 80 | 1015.1 |
| 20260507080038 | 13 | 255 | 1.6 | 3.2 | 0.00 | 0.00 | 0.00 | 80 | 1015.1 |
| 20260507074536 | 13 | 256 | 1.6 | 3.2 | 0.00 | 0.00 | 0.00 | 80 | 1015.3 |
| 20260507073041 | 14 | 257 | 1.6 | 4.8 | 0.00 | 0.00 | 0.00 | 79 | 1015.1 |
| 20260507071535 | 14 | 255 | 0.0 | 3.2 | 0.00 | 0.00 | 0.00 | 78 | 1015.1 |
| 20260507070037 | 14 | 252 | 0.0 | 3.2 | 0.00 | 0.00 | 0.00 | 79 | 1015.3 |
| 20260507064631 | 15 | 252 | 0.0 | 3.2 | 0.00 | 0.00 | 0.00 | 77 | 1015.4 |
| 20260507063031 | 15 | 252 | 0.0 | 3.2 | 0.00 | 0.00 | 0.00 | 77 | 1015.5 |
| 20260507061529 | 15 | 252 | 1.6 | 4.8 | 0.00 | 0.00 | 0.00 | 77 | 1015.4 |
| 20260507060027 | 15 | 252 | 0.0 | 1.6 | 0.00 | 0.00 | 0.00 | 76 | 1015.4 |
| 20260507054533 | 15 | 252 | 1.6 | 3.2 | 0.00 | 0.00 | 0.00 | 76 | 1015.4 |
| 20260507053026 | 15 | 252 | 0.0 | 3.2 | 0.00 | 0.00 | 0.00 | 75 | 1015.4 |
| 20260507051527 | 15 | 252 | 1.6 | 4.8 | 0.00 | 0.00 | 0.00 | 76 | 1015.3 |
| 20260507050033 | 16 | 250 | 0.0 | 0.0 | 0.00 | 0.00 | 0.00 | 75 | 1015.2 |
| 20260507044534 | 16 | 251 | 0.0 | 1.6 | 0.00 | 0.00 | 0.00 | 74 | 1015.2 |
| 20260507043024 | 16 | 252 | 0.0 | 1.6 | 0.00 | 0.00 | 0.00 | 73 | 1015.1 |
| 20260507041530 | 16 | 252 | 0.0 | 3.2 | 0.00 | 0.00 | 0.00 | 72 | 1015.2 |
| 20260507040023 | 16 | 252 | 0.0 | 1.6 | 0.00 | 0.00 | 0.00 | 70 | 1015.2 |
| 20260507034523 | 17 | 252 | 0.0 | 3.2 | 0.00 | 0.00 | 0.00 | 69 | 1014.9 |
| 20260507033028 | 17 | 252 | 0.0 | 3.2 | 0.00 | 0.00 | 0.00 | 68 | 1014.6 |
| 20260507031526 | 17 | 252 | 0.0 | 1.6 | 0.00 | 0.00 | 0.00 | 66 | 1014.6 |
| 20260507030022 | 18 | 251 | 0.0 | 6.4 | 0.00 | 0.00 | 0.00 | 64 | 1014.4 |
| 20260507024523 | 19 | 259 | 0.0 | 4.8 | 0.00 | 0.00 | 0.00 | 61 | 1014.3 |
| 20260507023020 | 20 | 199 | 0.0 | 3.2 | 0.00 | 0.00 | 0.00 | 59 | 1014.2 |
| 20260507021520 | 21 | 183 | 0.0 | 4.8 | 0.00 | 0.00 | 0.00 | 56 | 1014.1 |
| 20260507020020 | 21 | 235 | 1.6 | 6.4 | 0.00 | 0.00 | 0.00 | 54 | 1013.9 |
| 20260507014526 | 22 | 262 | 1.6 | 8.0 | 0.00 | 0.00 | 0.00 | 52 | 1013.7 |